Location: Newark
(52.9300°N, 3.3400°W)
Time: 11:46:11
(UTC+00:00)

ISS - Pass Details

Date: 11 March 2021
Orbit: 418 x 422 km, 51.6° (Epoch: 17 April)

Event Time Altitude Azimuth Distance (km) Brightness Sun altitude
Exits shadow 05:33:26 11° 228° (SW) 1,411 -1.6 -10.4°
Maximum altitude 05:33:50 12° 221° (SW) 1,400 -1.5 -10.3°
Drops below altitude 10° 05:35:04 10° 199° (SSW) 1,494 -1.2 -10.2°
Sets 05:38:17 0° 165° (SSE) 2,353 0.2 -9.7°
